Regional Weather Roundup
Issued by NWS

Home | Current Version | Previous Version | Graphics & Text | Print | Product List | Glossary On
Versions: 1 2 3 4 5 6 7 8 9 10 11 12 13 14 15 16 17 18 19 20 21 22 23 24 25 26 27 28 29 30 31 32 33 34 35 36 37 38 39 40 41 42 43 44 45 46 47 48 49 50
000
ASUS43 KIND 200909
RWRIN

WEATHER ROUNDUP FOR INDIANA
NATIONAL WEATHER SERVICE INDIANAPOLIS IN
400 AM EST SAT DEC 20 2014

NOTE: "FAIR" INDICATES FEW OR NO CLOUDS BELOW 12,000 FEET WITH NO
SIGNIFICANT WEATHER AND/OR OBSTRUCTIONS TO VISIBILITY.

* - STATION DOES NOT REPORT WEATHER SUCH AS PRECIPITATION OR FOG.

+ - STATION NOT QUALITY CONTROLLED BY THE NATIONAL WEATHER SERVICE.
    USE DATA WITH CAUTION...ESPECIALLY DEWPOINT AND RELATIVE
    HUMIDITY OBSERVATIONS.

INZ001>003-010>013-019-020-201000-
NORTHWEST INDIANA

CITY           SKY/WX    TMP DP  RH WIND       PRES   REMARKS
GARY /AIRPORT/ CLOUDY    33  22  65 CALM      30.30S
KNOX *+        CLOUDY    30  23  74 CALM      30.28R
LA PORTE +     CLOUDY    32  26  80 CALM      30.28S
MICHIGAN CITY+ CLOUDY    32  21  64 CALM      30.29S
MONTICELLO +   CLOUDY    29  28  96 CALM      30.28S
RENSSELAER +   CLOUDY    30  30 100 CALM      30.29S FOG
VALPARAISO     CLOUDY    30  22  72 W7        30.28S WCI  23

$$

LMZ046-743>745-201000-
SOUTHERN LAKE MICHIGAN

STATION/POSITION TIME  TEMP WIND        PRES
                       AIR  DIR/SP/G
                 (UTC) (F)  (DEG/KT/KT) (MB)

$$

INZ004-005-014>016-021>024-201000-
NORTH CENTRAL INDIANA

CITY           SKY/WX    TMP DP  RH WIND       PRES   REMARKS
GOSHEN         MOCLDY    25  23  92 SE3       30.27S FOG
LOGANSPORT +   CLOUDY    30  28  93 CALM      30.28F FOG
PERU/GRISSOM   CLOUDY    29  29 100 W2        30.27S
ROCHESTER +    CLOUDY    32  30  93 CALM      30.28S FOG
SOUTH BEND     NOT AVBL
WARSAW +       CLOUDY    30  28  93 CALM      30.27S FOG

$$

INZ006>009-017-018-025>027-201000-
NORTHEAST INDIANA

CITY           SKY/WX    TMP DP  RH WIND       PRES   REMARKS
ANGOLA *+      MOCLDY    21  19  93 CALM      30.26S
AUBURN +       CLOUDY    23  21  93 CALM      30.28S FOG
FORT WAYNE     CLOUDY    25  22  88 CALM      30.29R
HUNTINGTON +   CLOUDY    27  26  96 CALM      30.28S FOG

$$

INZ028-029-035-036-043>045-051>053-201000-
WEST CENTRAL INDIANA

CITY           SKY/WX    TMP DP  RH WIND       PRES   REMARKS
CRAWFORDSVL +  CLOUDY    27  25  93 CALM      30.28S FOG
GREENCASTLE +  LGT SNOW  28  25  86 CALM      30.28S
LAFAYETTE      CLOUDY    28  27  96 CALM      30.28F
TERRE HAUTE    CLOUDY    29  26  89 CALM      30.29S

$$

INZ030>032-037>040-046>048-054>057-064-065-201000-
CENTRAL INDIANA

CITY           SKY/WX    TMP DP  RH WIND       PRES   REMARKS
CP ATTERBURY + LGT SNOW  30  27  86 MISG      30.28F
FRANKFORT +    MOCLDY    29  29 100 CALM      30.28F FOG
GREENWOOD *+   CLOUDY    30  23  74 CALM      30.27
INDIANAPOLIS   CLOUDY    28  23  81 CALM      30.26F
-EAGLE CREEK   CLOUDY    28  23  81 CALM      30.26F
KOKOMO *+      CLOUDY    28  25  86 CALM      30.28S
MARION +       CLOUDY    28  28  97 CALM      30.28F FOG
MT COMFORT *+  CLOUDY    28  28 100 CALM      30.27F
SHELBYVILLE    CLOUDY    30  25  81 CALM      30.26F
ZIONSVILLE +   CLOUDY    29  26  88 CALM      30.27F FOG

$$

INZ033-034-041-042-049-050-058-059-201000-
EAST CENTRAL INDIANA

CITY           SKY/WX    TMP DP  RH WIND       PRES   REMARKS
MUNCIE         CLOUDY    29  25  85 CALM      30.27S

$$

INZ060-061-067>069-081>083-085>088-201000-
SOUTHWEST INDIANA

CITY           SKY/WX    TMP DP  RH WIND       PRES   REMARKS
EVANSVILLE     CLOUDY    32  26  78 NE5       30.29S WCI  27
HUNTINGBURG *+ MOCLDY    30  23  74 NE3       30.28S
WASHINGTON +   FLURRIES  31  24  76 CALM      30.28S

$$

INZ062-063-066-070>080-084-089>092-201000-
SOUTH CENTRAL AND SOUTHEAST INDIANA

CITY           SKY/WX    TMP DP  RH WIND       PRES   REMARKS
BLOOMINGTON    LGT SNOW  28  26  92 NE3       30.26F FOG
NORTH VERNON + FLURRIES  30  25  80 CALM      30.27

$$




USA.gov is the U.S. government's official web portal to all federal, state and local government web resources and services.